This is the latest recevied weather packets stored in our database for station/object PU2XNA. If no packets are shown the sender has not sent any weather packets the latest 10 day(s).
| Time | Temp. | Humidity | Pressure | Rain* | Wind** | Luminosity | Snow |
|---|---|---|---|---|---|---|---|
| 1788165003 | 22.22° C | 38% | 1010.7 hPa | - | - | - | - |
| 1788164103 | 22.22° C | 38% | 1011 hPa | - | - | - | - |
| 1788163202 | 22.78° C | 38% | 1011 hPa | - | - | - | - |
| 1788162303 | 22.78° C | 38% | 1011.1 hPa | - | - | - | - |
| 1788161404 | 22.22° C | 38% | 1011.1 hPa | - | - | - | - |
| 1788160503 | 23.33° C | 38% | 1010.1 hPa | - | - | - | - |
| 1788159602 | 23.33° C | 38% | 1010.1 hPa | - | - | - | - |
| 1788158703 | 23.89° C | 38% | 1010 hPa | - | - | - | - |
| 1788157803 | 23.89° C | 38% | 1010.2 hPa | - | - | - | - |
| 1788156903 | 23.33° C | 38% | 1010 hPa | - | - | - | - |
| 1788156002 | 23.33° C | 38% | 1009.8 hPa | - | - | - | - |
| 1788155104 | 24.44° C | 38% | 1010 hPa | - | - | - | - |
| 1788154204 | 24.44° C | 38% | 1010 hPa | - | - | - | - |
| 1788153303 | 23.33° C | 38% | 1010.1 hPa | - | - | - | - |
| 1788152403 | 23.89° C | 38% | 1010.2 hPa | - | - | - | - |
| 1788151503 | 25° C | 38% | 1010.4 hPa | - | - | - | - |
| 1788150602 | 25° C | 38% | 1010.9 hPa | - | - | - | - |
| 1788149703 | 25° C | 38% | 1011.1 hPa | - | - | - | - |
| 1788148803 | 25° C | 38% | 1011.3 hPa | - | - | - | - |
| 1788147902 | 25° C | 38% | 1011.6 hPa | - | - | - | - |
| 1788147004 | 25° C | 38% | 1011.7 hPa | - | - | - | - |
| 1788146103 | 25.56° C | 38% | 1011.8 hPa | - | - | - | - |
| 1788145202 | 25.56° C | 38% | 1011.8 hPa | - | - | - | - |
| 1788144303 | 26.11° C | 38% | 1012 hPa | - | - | - | - |
| 1788143403 | 26.11° C | 38% | 1011.6 hPa | - | - | - | - |
* Rain since midnight (hover to see other rain measurements)
** Current wind speed in m/s (hover to see current wind gust speed)